Wetbulb
52.02 53.77 56.53 57.77 57.69 57.39 56.09 55.32 55.17 55.11 53.82 49.82 48.23 46.70 44.89 44.69 44.36 44.95 44.81 44.53 44.13 43.60 43.38 42.56 41.56 41.55 41.18 40.55 40.31 40.08 40.06 39.48 39.42 41.19 42.16 41.10 40.63 40.37 40.97 41.41 40.61 39.90 39.72
50.00 51.51 54.20 56.42 56.60 56.51 55.80 54.73 54.66 53.54 52.63 51.23 50.12 48.07 46.18 44.91 44.59 44.55 43.93 44.20 43.62 43.17 42.82 42.24 41.36 41.09 40.01 39.29 39.21 39.58 38.68 38.60 38.29 38.67 39.39 39.56 39.69 40.46 40.16 39.97 39.41 38.81 39.38
47.77 50.01 51.35 54.33 55.87 55.92 55.08 54.16 54.40 53.26 52.66 51.96 50.15 48.47 46.58 44.91 42.91 42.63 42.72 43.21 43.21 42.77 42.42 42.12 41.38 40.72 40.54 39.22 39.06 38.79 38.39 37.61 37.23 37.09 38.00 37.78 37.25 36.05 39.18 38.42 38.47 38.00 37.99
48.14 49.31 50.44 52.39 54.45 55.21 55.65 55.27 54.92 53.13 52.91 52.37 49.43 46.95 43.92 41.23 42.29 42.53 43.41 42.49 42.78 42.26 42.00 41.58 41.01 40.31 39.93 38.72 38.43 38.11 38.09 38.39 36.62 36.74 36.09 36.25 35.41 34.31 34.44 38.00 37.90 37.42 37.10
48.29 48.18 50.33 51.47 53.51 54.74 54.98 54.91 54.90 53.28 53.19 51.73 50.32 47.69 45.21 44.88 44.22 42.90 42.46 41.79 41.85 42.09 41.32 40.87 40.22 39.59 39.01 38.72 37.65 36.69 36.59 37.37 37.12 36.73 35.44 35.27 35.56 35.06 32.73 31.52 35.18 36.65 37.97
49.02 48.70 50.93 51.83 52.03 53.92 55.04 54.98 54.44 53.04 52.79 51.49 50.26 47.47 46.78 45.46 43.48 42.36 41.71 41.43 41.08 41.07 40.69 39.96 39.79 39.25 38.14 37.20 36.87 36.68 36.20 36.23 35.95 35.98 35.07 34.95 34.44 33.77 32.25 31.29 32.47 31.79 34.80
48.33 48.07 47.72 50.14 50.74 51.28 52.88 53.20 53.39 52.04 51.86 50.69 49.56 47.74 47.97 46.83 44.36 42.76 41.85 40.80 40.72 40.24 39.64 39.28 38.57 37.92 37.56 36.63 36.09 35.57 35.30 35.17 35.04 34.68 34.70 34.69 33.98 34.00 32.70 31.08 30.39 30.39 33.07
47.47 48.23 48.00 49.73 50.47 50.78 51.32 51.75 51.84 51.41 50.82 49.78 49.06 48.27 48.93 47.54 45.17 43.69 43.19 41.99 41.39 40.96 40.36 38.93 38.30 37.47 36.48 35.91 35.49 35.37 35.02 34.96 34.89 33.94 33.61 34.13 33.91 33.46 32.61 31.12 29.82 27.76 30.11
47.43 47.11 47.72 49.42 50.48 50.92 50.62 50.58 50.62 51.12 50.10 49.37 48.97 48.35 48.84 47.51 45.18 44.33 44.27 42.89 42.17 40.96 39.39 38.44 37.53 36.59 35.59 35.12 34.45 34.54 34.17 34.27 34.44 34.21 33.52 32.87 33.58 33.26 32.98 32.51 31.71 29.06 24.93
43.06 44.24 46.05 47.60 50.32 51.09 51.32 50.83 50.75 50.11 49.76 49.52 49.16 48.45 48.42 47.27 46.46 44.62 43.18 42.58 41.93 39.66 38.49 37.32 36.72 35.37 34.73 34.36 34.06 34.06 33.98 33.46 33.60 33.62 32.84 32.65 32.98 32.85 33.07 32.80 32.50 31.82 29.12
45.74 45.76 45.92 47.01 49.25 50.43 50.87 50.32 50.17 49.66 49.10 49.23 48.98 48.11 47.67 46.12 45.62 44.07 43.29 42.36 40.62 38.94 37.56 36.60 35.72 34.62 33.82 33.64 33.52 33.60 33.01 32.29 32.58 32.20 32.00 31.64 32.49 32.44 33.09 33.37 32.93 31.95 31.44
43.88 44.33 44.36 45.93 47.74 48.63 49.09 49.19 49.57 49.25 48.86 48.56 48.24 47.13 46.70 45.28 43.77 43.09 42.59 41.25 39.04 39.02 37.72 36.05 34.87 34.00 33.30 33.07 32.72 32.25 31.95 31.54 31.28 31.55 31.31 31.31 32.08 32.09 33.15 33.04 32.29 32.05 32.37
42.72 43.39 44.15 45.40 46.85 47.66 48.02 48.13 48.66 48.39 48.08 47.13 47.06 45.98 44.28 43.62 42.53 41.97 40.67 39.51 38.70 37.84 36.52 35.01 33.83 32.82 32.46 32.31 32.51 32.31 31.87 31.49 31.43 31.53 31.49 31.87 32.25 31.91 32.81 32.85 32.18 32.31 32.39
41.53 41.97 42.70 44.17 45.54 46.64 47.06 47.35 47.52 47.93 46.84 46.36 45.51 44.00 43.15 41.78 42.08 40.56 39.47 39.02 37.90 36.36 34.74 34.04 33.10 32.20 31.53 31.57 31.50 31.14 31.19 31.13 31.34 31.99 32.29 32.46 32.36 32.09 32.14 31.88 31.79 32.27 32.42
31.83 37.64 41.10 42.18 43.63 44.50 45.34 46.15 46.18 45.42 45.32 44.62 43.21 41.43 40.98 41.77 40.23 38.10 37.68 36.98 36.31 34.15 32.10 30.53 30.02 29.78 29.65 30.08 31.01 30.93 31.34 31.47 32.02 32.83 32.88 33.17 33.04 32.43 33.08 32.51 32.85 33.24 32.39
29.19 30.79 34.38 39.89 39.91 41.33 42.60 42.83 42.82 42.79 42.69 41.03 40.13 40.27 40.04 38.58 37.20 36.70 35.82 34.72 32.47 29.64 28.96 28.20 27.65 27.40 27.68 31.53 32.03 31.92 31.86 32.59 32.59 32.38 32.75 32.90 32.36 32.74 33.41 33.95 33.96 33.95 31.79
27.26 29.24 30.63 33.90 39.51 39.71 40.98 40.29 40.25 40.50 40.37 39.42 38.82 37.78 36.91 35.85 35.65 34.62 32.94 31.12 28.73 28.60 27.56 26.86 26.70 26.90 27.84 32.79 33.27 33.44 33.93 33.14 32.80 32.13 31.75 31.69 32.41 32.70 32.40 32.79 33.67 34.28 34.96
26.46 27.19 29.64 31.38 39.10 38.32 39.29 39.82 39.34 38.36 37.80 36.85 35.42 34.95 34.52 33.56 32.59 31.66 30.75 29.61 27.84 26.96 26.12 25.78 26.30 26.75 27.72 32.62 33.31 33.82 33.58 32.54 32.23 32.01 32.00 32.04 31.87 32.47 31.88 31.83 32.25 32.37 32.40
27.10 26.84 28.35 32.70 37.68 35.66 36.76 36.88 36.55 36.28 34.99 33.71 33.57 33.70 33.30 31.48 30.95 29.90 28.40 27.15 26.13 25.43 25.20 25.75 25.93 26.22 27.61 32.44 32.63 32.43 32.15 31.25 31.17 31.89 32.63 32.16 31.66 32.20 33.22 31.76 30.55 30.36 30.84
27.18 26.26 27.82 32.59 35.33 34.67 34.82 34.33 34.18 34.08 32.43 32.37 32.03 32.47 32.00 31.04 30.21 28.48 26.42 26.36 25.94 25.20 25.78 25.41 26.33 28.34 27.33 31.30 31.64 32.29 31.82 30.77 31.22 31.91 31.93 31.40 31.12 32.15 32.53 30.80 29.67 28.06 28.24
25.73 26.43 26.82 29.36 32.44 32.73 33.36 31.56 31.81 31.72 32.30 31.94 31.22 30.87 31.18 30.06 27.76 26.41 25.87 25.51 25.25 25.27 24.67 24.69 26.13 26.79 28.41 29.95 31.64 31.87 31.82 31.57 30.45 30.44 30.04 30.57 31.02 31.40 31.56 31.41 29.46 28.14 30.65
24.31 24.87 25.16 27.00 29.86 31.24 31.26 29.91 29.85 30.73 30.87 30.45 29.63 28.79 27.78 26.53 26.02 25.35 25.48 25.48 24.83 24.27 23.90 24.24 24.94 26.80 28.78 30.21 31.16 31.46 31.30 31.82 30.56 29.47 29.63 30.44 30.36 30.24 30.24 29.74 29.78 30.26 29.73
23.46 24.20 24.78 26.16 28.81 30.15 30.36 28.84 27.88 28.70 28.71 28.11 26.81 26.19 25.92 25.82 26.24 25.26 24.48 24.13 24.71 24.32 24.39 25.32 25.18 25.92 27.78 29.52 30.88 30.66 30.41 29.96 29.77 29.93 30.19 29.26 28.82 28.77 28.41 28.82 28.97 28.66 27.18
22.64 24.06 24.22 23.54 24.04 26.66 27.24 26.72 27.39 27.86 27.03 25.73 25.12 25.28 24.95 25.27 25.49 25.68 25.53 25.03 25.05 25.35 25.99 25.64 25.72 26.35 27.66 28.69 30.09 30.10 30.53 28.93 29.11 29.20 28.20 26.88 26.88 27.02 27.12 27.09 27.22 26.92 27.08
22.56 23.69 23.59 23.20 23.18 25.12 25.63 26.57 26.80 26.72 25.23 24.95 24.89 25.36 26.08 24.99 25.14 26.05 26.26 26.88 28.14 28.48 27.12 27.14 27.37 27.32 27.19 28.85 30.44 29.68 28.88 29.62 28.13 26.43 25.84 25.29 24.70 24.25 24.63 24.98 25.54 25.90 26.29
22.29 22.99 23.61 23.66 23.68 24.20 24.80 26.13 26.92 26.41 25.18 24.73 25.13 24.67 24.92 25.45 25.68 25.90 26.43 30.19 29.99 30.21 29.73 29.77 29.65 29.66 30.61 30.34 29.33 28.41 27.99 27.85 26.01 25.10 23.62 23.34 23.39 23.08 23.13 22.64 22.89 24.26 24.17
MSLP
1002.35 1003.92 1004.80 1006.20 1007.34 1008.27 1009.06 1009.82 1010.66 1011.58 1012.63 1013.52 1014.60 1015.60 1016.21 1017.16 1018.47 1018.97 1019.44 1019.82 1020.48 1020.91 1021.55 1022.00 1022.74 1023.17 1023.33 1023.46 1023.62 1023.61 1023.42 1023.41 1023.46 1022.78 1022.45 1022.78 1023.31 1023.46 1023.52 1023.66 1023.73 1023.89 1023.91
1001.83 1002.98 1003.79 1004.73 1005.83 1006.72 1007.77 1008.87 1009.76 1010.70 1011.43 1012.48 1013.44 1014.40 1015.44 1016.89 1018.04 1018.75 1019.12 1019.40 1020.18 1020.99 1021.51 1022.00 1022.59 1023.01 1023.36 1023.67 1023.76 1023.61 1023.42 1023.55 1023.82 1023.25 1022.94 1022.44 1022.90 1023.13 1023.21 1023.48 1023.73 1023.83 1023.79
1000.37 1001.64 1002.78 1003.41 1004.40 1005.32 1006.80 1007.72 1008.49 1009.51 1010.39 1011.63 1013.01 1014.09 1015.47 1016.94 1017.67 1018.20 1018.73 1019.10 1019.86 1021.00 1021.28 1021.93 1022.40 1023.02 1023.24 1023.53 1023.77 1023.61 1023.08 1023.12 1024.07 1024.11 1023.64 1023.22 1022.91 1023.31 1023.05 1023.40 1023.68 1023.78 1023.68
999.26 1000.25 1001.49 1002.32 1003.29 1004.06 1005.29 1006.48 1007.50 1008.67 1009.91 1010.73 1011.69 1012.30 1013.20 1014.54 1015.76 1017.00 1017.91 1018.87 1019.52 1020.81 1021.24 1021.86 1022.40 1022.92 1023.20 1023.49 1023.77 1023.71 1023.36 1023.20 1023.60 1024.36 1024.58 1024.60 1024.72 1024.17 1023.01 1023.07 1023.26 1023.63 1023.32
997.74 998.51 999.75 1000.54 1001.45 1002.80 1003.93 1005.32 1006.52 1007.78 1008.77 1009.59 1010.33 1011.48 1012.70 1013.75 1014.95 1016.52 1017.57 1018.60 1019.33 1020.41 1021.17 1021.76 1022.36 1022.85 1023.10 1023.45 1023.71 1023.76 1023.63 1023.62 1023.71 1024.03 1024.51 1024.97 1025.09 1025.25 1024.96 1023.50 1022.76 1023.09 1022.73
996.48 997.35 998.43 999.93 1000.78 1002.03 1003.14 1004.45 1005.44 1006.42 1007.39 1008.38 1009.44 1010.43 1011.26 1012.42 1013.95 1015.27 1016.65 1017.72 1018.89 1019.88 1020.86 1021.49 1022.12 1022.66 1023.01 1023.52 1023.80 1023.75 1023.85 1023.83 1024.07 1024.35 1024.62 1024.70 1024.85 1024.95 1025.22 1024.71 1023.92 1023.46 1022.42
995.23 996.26 997.44 998.76 999.82 1000.88 1001.84 1003.25 1004.19 1005.19 1006.32 1007.38 1008.42 1009.52 1010.29 1011.34 1012.61 1013.76 1015.26 1016.54 1017.84 1018.96 1019.97 1020.88 1021.78 1022.35 1022.83 1023.33 1023.68 1023.67 1023.95 1024.08 1024.18 1024.43 1024.57 1025.02 1025.17 1025.40 1025.53 1025.52 1024.94 1024.03 1022.86
994.59 995.51 996.32 997.40 998.41 999.58 1000.57 1001.56 1002.79 1004.08 1005.29 1006.30 1007.25 1008.69 1009.59 1010.65 1011.73 1012.98 1014.16 1015.38 1016.68 1017.83 1019.18 1020.33 1021.34 1022.05 1022.58 1023.02 1023.48 1023.47 1023.70 1023.95 1024.12 1024.39 1024.63 1024.87 1025.16 1025.50 1025.59 1025.51 1025.23 1024.17 1023.24
994.10 994.84 995.78 996.56 997.39 998.58 999.62 1000.35 1001.55 1002.82 1003.98 1005.03 1006.37 1007.44 1008.37 1009.64 1010.50 1012.08 1013.39 1014.57 1016.16 1017.36 1018.64 1019.83 1020.80 1021.57 1022.25 1022.55 1023.24 1023.32 1023.51 1023.72 1023.87 1024.15 1024.47 1024.80 1024.92 1025.25 1025.28 1025.24 1025.26 1024.98 1023.55
994.73 995.17 995.69 996.20 996.73 997.71 998.85 999.91 1000.72 1001.36 1002.34 1003.73 1005.20 1006.20 1007.38 1008.85 1010.02 1011.44 1012.54 1013.71 1015.28 1016.75 1018.00 1019.29 1020.30 1021.11 1021.95 1022.40 1022.70 1023.01 1023.36 1023.45 1023.73 1023.88 1024.19 1024.36 1024.57 1024.73 1024.79 1024.81 1024.76 1024.52 1023.92
994.61 994.85 995.14 995.53 996.19 997.30 998.48 999.39 1000.29 1001.18 1002.14 1003.17 1004.33 1005.43 1006.65 1008.24 1009.54 1010.66 1011.86 1013.15 1014.72 1016.11 1017.48 1018.75 1019.74 1020.58 1021.47 1022.04 1022.31 1022.63 1023.17 1023.32 1023.45 1023.67 1023.79 1023.94 1024.20 1024.26 1024.26 1024.25 1024.10 1023.71 1023.24
996.40 996.08 995.80 995.98 996.27 996.97 997.94 998.90 999.81 1000.63 1001.70 1002.89 1004.03 1005.04 1006.24 1007.80 1008.99 1010.12 1011.32 1012.98 1014.28 1015.67 1016.92 1018.17 1019.25 1020.23 1021.09 1021.62 1021.95 1022.23 1022.74 1023.08 1023.17 1023.31 1023.50 1023.62 1023.84 1023.87 1023.74 1023.60 1023.23 1022.89 1022.52
997.66 997.30 996.83 996.61 996.85 997.25 997.91 998.72 999.50 1000.52 1001.73 1002.85 1003.70 1004.99 1006.16 1007.23 1008.46 1009.77 1011.19 1012.76 1013.92 1015.30 1016.70 1017.67 1018.78 1019.82 1020.64 1021.22 1021.58 1021.84 1022.25 1022.69 1022.84 1022.97 1023.10 1023.25 1023.42 1023.34 1023.16 1022.96 1022.61 1022.28 1021.68
999.10 998.99 998.57 998.22 997.99 998.07 998.42 998.96 999.70 1000.56 1001.67 1002.81 1003.80 1004.78 1005.70 1006.87 1008.05 1009.45 1010.82 1012.14 1013.39 1014.82 1016.14 1017.33 1018.51 1019.46 1020.27 1020.86 1021.30 1021.68 1022.04 1022.29 1022.46 1022.61 1022.80 1022.97 1022.96 1022.87 1022.76 1022.58 1022.39 1021.89 1021.10
1001.05 1000.13 999.79 999.77 999.48 999.27 999.38 999.61 1000.08 1000.99 1001.96 1002.92 1004.12 1005.30 1006.37 1007.02 1008.08 1009.40 1010.64 1011.88 1013.26 1014.61 1015.81 1017.17 1018.45 1019.41 1020.14 1020.53 1020.95 1021.34 1021.60 1021.87 1022.15 1022.35 1022.50 1022.50 1022.45 1022.58 1022.50 1022.13 1021.60 1021.20 1020.53
1003.01 1002.22 1001.42 1000.54 1000.53 1000.42 1000.34 1000.40 1000.91 1001.60 1002.37 1003.56 1004.62 1005.72 1006.65 1007.54 1008.40 1009.39 1010.45 1011.79 1013.32 1014.56 1015.90 1017.22 1018.31 1019.31 1019.83 1020.19 1020.59 1020.85 1021.32 1021.66 1021.82 1021.90 1022.02 1021.95 1022.06 1021.98 1021.88 1021.73 1021.41 1020.96 1020.03
1004.43 1003.80 1002.96 1002.10 1001.12 1001.21 1001.24 1001.49 1001.76 1002.39 1003.01 1003.76 1004.70 1005.82 1006.88 1007.84 1008.71 1009.67 1010.74 1011.99 1013.26 1014.61 1016.08 1017.45 1018.50 1019.21 1019.62 1019.96 1020.39 1020.76 1021.04 1021.36 1021.47 1021.68 1021.63 1021.53 1021.54 1021.60 1021.52 1021.13 1020.55 1019.83 1019.26
1004.94 1004.26 1003.42 1002.63 1001.79 1001.68 1002.01 1002.21 1002.60 1002.96 1003.38 1004.24 1005.20 1006.01 1006.91 1007.86 1008.99 1010.16 1011.29 1012.43 1013.64 1014.92 1016.33 1017.59 1018.40 1019.02 1019.51 1019.81 1020.22 1020.52 1020.91 1021.22 1021.34 1021.34 1021.32 1021.31 1021.34 1021.20 1020.99 1020.40 1019.74 1019.09 1018.35
1006.77 1005.68 1004.60 1002.98 1002.01 1002.09 1002.39 1002.89 1003.05 1003.41 1003.93 1004.43 1005.27 1006.07 1006.86 1007.99 1009.05 1010.22 1011.52 1012.82 1014.06 1015.49 1016.68 1017.66 1018.45 1018.91 1019.28 1019.72 1020.02 1020.43 1020.79 1020.94 1020.94 1021.02 1021.16 1021.15 1020.96 1020.65 1020.54 1019.96 1019.14 1018.31 1017.74
1007.77 1006.71 1005.08 1003.51 1002.60 1002.56 1002.82 1003.23 1003.32 1003.72 1004.27 1004.70 1005.35 1006.32 1007.34 1008.38 1009.50 1010.54 1011.74 1013.16 1014.41 1015.69 1016.86 1017.94 1018.51 1018.77 1019.22 1019.67 1019.98 1020.22 1020.46 1020.57 1020.68 1020.80 1020.79 1020.76 1020.75 1020.69 1020.27 1019.54 1018.86 1018.17 1017.41
1007.37 1006.55 1005.55 1004.40 1003.36 1002.93 1002.89 1003.35 1003.79 1004.00 1004.51 1005.19 1005.91 1006.70 1007.73 1008.74 1009.97 1011.13 1012.32 1013.50 1014.80 1016.06 1017.15 1017.96 1018.53 1018.92 1019.22 1019.60 1019.76 1020.02 1020.19 1020.28 1020.48 1020.36 1020.33 1020.36 1020.43 1020.07 1019.65 1019.29 1018.77 1018.19 1017.17
1007.58 1006.60 1005.49 1004.34 1003.46 1002.86 1003.30 1003.89 1004.24 1004.65 1005.24 1005.74 1006.44 1007.14 1008.11 1009.24 1010.37 1011.31 1012.77 1013.92 1015.09 1016.23 1017.28 1017.98 1018.63 1019.03 1019.24 1019.46 1019.73 1019.88 1019.98 1020.10 1020.24 1020.38 1020.24 1020.12 1019.92 1019.46 1019.23 1019.03 1018.43 1017.53 1016.87
1008.21 1007.37 1006.36 1005.06 1004.17 1003.56 1003.56 1004.12 1005.01 1005.40 1005.85 1006.41 1007.10 1007.93 1008.76 1009.80 1010.77 1011.66 1013.04 1014.35 1015.39 1016.22 1017.08 1017.57 1018.30 1018.88 1019.26 1019.53 1019.63 1019.64 1019.88 1020.08 1020.23 1020.14 1020.06 1019.98 1019.65 1019.24 1018.97 1018.74 1017.94 1017.12 1016.59
1008.08 1007.50 1006.82 1006.07 1005.34 1004.63 1004.18 1004.88 1005.43 1006.04 1006.69 1007.17 1007.70 1008.51 1009.24 1010.41 1011.48 1012.48 1013.64 1014.67 1015.55 1016.20 1016.79 1017.50 1018.10 1018.62 1018.99 1019.27 1019.39 1019.62 1019.92 1020.13 1020.14 1020.14 1020.21 1020.07 1019.87 1019.48 1018.96 1018.26 1017.78 1017.28 1016.73
1008.47 1007.82 1007.20 1006.71 1006.33 1006.08 1005.89 1006.07 1006.44 1006.79 1007.27 1007.97 1008.39 1009.06 1010.02 1010.97 1012.01 1013.18 1014.16 1014.89 1015.59 1016.01 1016.65 1017.24 1017.70 1018.18 1018.65 1019.23 1019.36 1019.59 1019.86 1019.98 1020.28 1020.37 1020.50 1019.99 1019.72 1019.28 1018.66 1018.13 1017.79 1017.24 1016.47
1008.89 1008.35 1007.83 1007.47 1006.96 1006.71 1006.89 1007.12 1007.22 1007.61 1008.04 1008.60 1009.10 1009.54 1010.45 1011.53 1012.59 1013.52 1014.52 1015.37 1015.85 1016.54 1017.01 1017.35 1017.96 1018.56 1018.89 1019.20 1019.46 1019.69 1019.97 1020.23 1020.53 1020.38 1020.47 1020.11 1019.75 1019.20 1018.73 1018.34 1017.99 1017.21 1016.46
Wind_Speed
19 20 22 23 23 22 21 23 22 22 17 14 14 13 12 12 11 11 14 14 12 12 11 8 8 6 5 5 5 3 3 3 5 3 2 3 3 4 3 3 4 4 5
17 19 22 23 23 25 24 23 24 23 21 15 13 11 12 11 11 10 13 14 14 13 10 10 8 8 6 6 5 4 3 3 5 3 1 1 4 3 4 4 3 5 6
22 21 23 25 24 26 26 27 28 25 23 21 14 11 11 10 11 12 11 13 14 13 12 11 9 8 6 5 5 4 3 4 3 5 3 1 2 5 3 4 3 5 5
20 19 22 24 26 26 25 25 24 24 22 23 20 22 18 16 11 13 12 12 15 14 12 11 10 9 6 6 5 4 4 4 4 3 3 4 3 3 5 3 5 4 9
20 21 24 25 26 24 23 23 25 25 25 24 23 19 19 13 11 12 16 14 14 14 13 12 11 9 6 6 6 6 5 4 4 3 3 1 1 2 3 7 6 9 5
22 21 19 19 21 20 21 22 26 25 25 25 24 25 23 20 15 17 14 12 12 11 13 12 10 9 8 8 7 6 6 5 4 3 3 2 2 2 4 6 10 13 8
19 19 19 19 19 24 24 22 26 25 26 26 25 24 23 23 22 21 16 17 13 12 15 14 12 9 9 8 7 7 6 6 5 5 3 3 3 3 4 6 9 9 12
16 17 19 19 21 23 25 25 26 25 26 26 26 22 23 15 16 19 16 14 13 13 17 14 13 12 11 9 8 6 5 6 5 6 4 3 3 4 5 6 8 11 8
13 15 15 18 21 22 25 26 26 26 26 25 23 24 22 22 19 21 19 15 16 13 17 16 14 13 12 11 9 6 7 6 5 5 5 4 4 5 5 6 7 8 8
5 9 12 16 17 20 21 23 24 27 26 26 23 20 22 20 18 19 20 20 18 18 18 17 15 14 12 11 10 7 7 7 5 4 5 5 5 6 6 7 8 9 11
8 11 13 15 17 18 19 20 22 23 23 23 22 22 20 20 19 18 19 19 19 19 19 17 16 14 13 12 10 8 8 7 6 6 6 6 7 6 6 7 8 9 10
9 6 6 9 14 16 17 18 18 19 19 20 20 20 19 20 19 18 19 19 20 19 19 17 15 14 13 12 11 10 8 8 7 6 6 7 5 8 9 8 11 11 12
12 8 4 5 9 12 14 17 18 18 18 19 19 19 20 20 20 19 19 19 19 19 18 17 16 14 13 12 10 9 9 8 7 6 7 6 7 8 8 9 10 10 10
14 9 6 2 4 8 11 14 15 17 18 18 18 19 20 20 19 19 19 19 19 18 18 16 15 14 12 11 10 9 8 7 6 6 6 7 8 9 10 9 12 12 10
19 18 11 5 1 6 9 11 13 14 16 18 17 18 18 18 18 18 18 18 18 16 15 14 12 11 10 8 11 10 8 7 6 6 6 7 8 11 13 10 12 13 12
19 18 18 8 4 4 7 11 13 13 15 16 16 17 16 16 17 18 19 18 17 16 15 13 12 11 6 14 14 10 7 7 6 5 6 6 8 10 14 17 19 18 14
19 18 16 15 5 6 7 10 13 14 15 16 17 17 16 16 16 17 17 17 17 16 14 12 11 10 7 16 14 12 6 5 5 5 5 6 6 9 10 14 19 19 22
24 21 17 15 8 5 7 9 11 13 14 14 16 15 16 16 16 16 16 15 14 15 13 11 10 9 7 14 13 10 5 5 5 5 6 7 9 9 11 14 14 15 16
20 17 17 19 7 6 8 10 12 13 14 15 15 15 16 17 17 17 17 14 14 12 11 10 10 9 8 13 11 8 5 4 4 4 6 7 10 12 17 15 14 16 15
16 17 18 15 3 6 9 10 11 13 13 13 14 14 15 16 17 17 16 13 12 12 10 10 8 11 9 11 9 8 3 3 3 4 6 8 9 16 18 13 14 14 15
19 17 14 10 3 7 8 9 10 12 13 13 15 16 15 16 16 15 14 14 13 12 10 9 7 7 8 8 9 6 3 2 3 4 5 5 11 16 17 17 12 14 18
18 16 13 10 4 5 7 8 9 9 12 14 15 15 16 13 13 17 14 14 13 12 10 9 7 6 7 8 6 4 1 2 2 5 5 6 15 16 17 14 18 22 20
13 12 12 9 3 3 7 9 8 11 13 14 15 15 15 14 14 16 15 12 11 10 9 8 7 7 6 5 5 3 1 1 4 4 7 12 13 14 12 16 19 18 10
12 11 9 7 7 4 7 8 10 12 13 14 15 14 15 15 13 11 10 10 9 8 8 9 8 7 6 5 4 3 2 1 3 3 5 8 9 10 11 11 12 10 10
10 9 7 4 5 5 6 7 9 11 12 12 13 14 12 13 13 11 9 8 7 8 8 8 8 8 7 5 6 4 2 2 5 4 3 4 6 7 8 9 10 10 10
9 8 5 3 4 5 5 5 7 10 12 12 11 12 11 11 10 10 10 15 16 17 16 16 9 6 11 11 10 8 5 6 6 2 4 5 6 8 9 10 11 11 14
Wind_Direction
211 197 197 197 195 193 186 187 182 181 175 170 170 175 176 172 177 182 168 165 161 162 162 153 154 170 173 155 160 135 123 74 7 295 152 161 192 262 227 244 296 305 312
202 194 192 191 191 193 190 186 187 181 181 178 176 171 168 176 179 177 169 167 166 167 165 160 166 173 157 162 170 188 146 91 23 18 11 3 170 188 242 286 285 297 307
207 196 191 190 190 191 190 192 190 184 182 181 169 164 160 164 178 181 175 173 167 172 169 170 166 171 170 171 172 166 150 124 88 48 8 251 324 331 156 234 274 299 308
221 202 195 191 191 193 191 191 187 184 187 179 176 176 177 174 183 176 172 170 170 176 171 172 171 172 170 170 173 166 127 137 124 123 65 51 8 336 311 194 234 288 309
221 211 199 194 193 190 189 190 187 185 185 184 184 181 183 181 164 173 168 172 171 178 175 173 173 174 173 173 172 160 150 132 136 137 142 134 151 258 278 302 307 308 305
223 215 202 192 194 190 185 187 189 189 187 185 187 187 184 175 167 170 172 173 172 173 178 175 175 175 170 173 176 160 157 144 141 147 160 195 229 217 253 280 303 307 306
218 214 202 195 188 189 185 188 190 190 189 188 189 188 186 181 176 171 174 168 171 177 181 174 176 177 173 173 173 165 164 164 168 176 178 203 231 254 266 277 285 285 307
226 215 202 195 191 189 188 186 190 190 189 188 189 189 188 185 181 180 174 175 176 175 169 172 176 175 172 171 177 169 170 170 180 184 192 223 232 239 252 266 291 300 284
224 210 199 199 194 192 193 190 189 192 190 188 187 189 188 186 183 179 177 174 173 168 168 172 175 174 174 172 175 178 175 180 185 191 203 225 240 243 250 257 265 279 296
211 204 200 199 197 194 194 193 193 192 186 186 188 187 188 183 181 175 174 173 171 165 167 172 173 171 174 174 177 177 180 185 188 196 210 224 239 247 254 258 262 260 268
254 222 205 200 196 192 192 192 192 190 186 185 185 182 184 181 177 177 172 168 163 166 168 171 171 171 174 177 181 180 179 192 196 199 214 233 244 254 262 263 264 267 270
348 326 241 199 188 187 187 189 188 188 185 181 182 180 176 178 174 174 169 165 167 167 169 168 168 169 174 178 182 177 186 198 202 211 216 234 244 257 265 269 274 277 281
7 4 13 193 191 186 184 187 186 185 181 179 176 177 176 175 173 170 165 167 164 166 165 164 167 170 174 177 182 184 185 197 207 216 227 244 253 265 273 278 283 284 285
1 12 22 28 188 186 183 182 181 182 176 178 177 175 174 171 170 165 163 166 164 162 162 163 164 168 170 176 176 181 189 196 211 220 236 251 260 273 284 289 285 278 283
356 353 354 358 189 176 176 177 172 171 175 174 173 173 171 169 162 161 160 158 159 154 147 146 153 157 167 172 177 182 188 197 210 225 243 256 269 279 275 282 289 294 292
346 344 340 326 292 202 177 165 167 162 158 166 171 171 169 164 161 157 156 152 146 140 140 145 147 156 162 176 179 174 182 199 217 236 258 272 276 275 282 283 291 289 293
340 332 329 323 258 239 191 179 167 161 168 168 165 166 164 161 158 152 148 147 143 139 139 140 145 155 160 174 178 185 185 205 220 246 272 285 289 290 292 296 288 290 290
332 327 322 317 280 188 205 177 170 168 163 162 164 160 159 154 150 149 145 138 136 137 139 142 145 148 161 171 175 175 176 211 230 257 282 292 299 294 299 293 297 299 298
320 314 310 304 244 183 175 183 173 167 164 163 163 160 155 149 148 145 139 135 132 133 136 140 146 151 153 164 162 172 179 214 249 283 286 295 296 304 303 309 306 305 303
317 316 315 315 219 184 173 179 173 170 167 158 151 148 147 146 145 139 136 133 128 127 130 136 145 150 142 158 162 179 193 223 275 291 288 282 294 306 313 315 313 308 312
321 321 317 301 233 173 164 163 169 176 159 147 145 145 147 142 136 130 128 126 126 125 128 130 133 128 142 153 164 181 186 259 287 294 295 298 308 317 321 317 311 310 316
328 331 321 312 300 142 150 156 164 145 146 144 141 138 135 132 131 127 126 125 127 126 126 126 127 131 136 146 160 184 199 318 294 286 299 306 322 321 321 319 317 322 324
327 331 328 313 296 164 150 147 140 145 143 140 135 132 127 126 129 128 127 125 129 131 135 132 131 140 145 150 154 136 58 343 295 299 317 316 319 325 320 322 323 326 320
332 332 335 352 352 25 102 127 140 142 138 136 132 129 126 125 121 116 119 125 131 132 131 143 145 142 145 144 140 135 157 286 308 335 314 327 324 322 319 326 329 324 315
334 331 341 9 30 53 95 119 132 134 130 128 126 124 122 120 117 112 124 129 128 139 144 141 142 146 137 132 105 94 88 30 16 343 329 334 334 331 337 332 325 317 317
338 341 352 15 74 78 81 101 113 126 127 127 127 125 123 119 120 122 118 121 129 129 125 125 123 127 120 108 94 93 79 62 22 11 345 341 337 340 339 330 320 321 320